AirNav   Pilot Hours Calculator
 
 992 users online  

5OK3 Stearmans Roost Airport
Vinita, Oklahoma, USA

GOING TO VINITA?


FAA INFORMATION EFFECTIVE 22 APRIL 2021

Location

FAA Identifier: 5OK3
Lat/Long: 36-29-18.3110N 095-08-37.8780W
36-29.305183N 095-08.631300W
36.4884197,-95.1438550
(estimated)
Elevation: 702 ft. / 214 m (estimated)
Variation: 05E (1985)
From city: 10 miles S of VINITA, OK
Time zone: UTC -5 (UTC -6 during Standard Time)
Zip code: 74332

Airport Operations

Airport use: Private use. Permission required prior to landing
Activation date: 12/1977
Control tower: no
ARTCC: KANSAS CITY CENTER
FSS: MC ALESTER FLIGHT SERVICE STATION
Attendance: CONTINUOUS
Wind indicator: yes
Segmented circle: no

Airport Communications

WX AWOS-3PT at H71 (18 nm SW): 120.1 (918-476-0517)

Nearby radio navigation aids

VOR radial/distance  VOR name  Freq  Var
TULr053/35.7TULSA VORTAC114.4008E

 
NDB name  Hdg/Dist  Freq  Var  ID
SILOAM SPRINGS296/36.428404ESLG ... .-.. --.

Airport Services

Airframe service: MAJOR
Powerplant service: MAJOR

Runway Information

Runway 9/27

Dimensions: 4000 x 100 ft. / 1219 x 30 m
Surface: turf
RUNWAY 9  RUNWAY 27
Traffic pattern: leftleft

Airport Ownership and Management from official FAA records

Ownership: Privately-owned
Owner: GEORGE O COLVIN
36526 S 4410 RD
BIG CABIN, OK 74332
Phone 918-557-1999
Manager: GEORGE O COLVIN
36526 S 4410 RD
BIG CABIN, OK 74332
Phone 918-557-1999

Airport Operational Statistics

Aircraft based on the field: 6
Single engine airplanes: 6
    

Additional Remarks

FOR CD CTC KANSAS CITY ARTCC AT 913-254-8508.

Instrument Procedures

There are no published instrument procedures at 5OK3.

Some nearby airports with instrument procedures:

1K8 - South Grand Lake Regional Airport (7 nm NE)
H71 - Mid-America Industrial Airport (18 nm SW)
KGCM - Claremore Regional Airport (20 nm SW)
KGMJ - Grove Municipal Airport (21 nm E)
KMIO - Miami Regional Airport (28 nm NE)
 
Loc | Ops | Rwys | IFR | FBO | Links
Com | Nav | Svcs | Stats | Notes
Area around 5OK3 (Stearmans Roost Airport)
 
Road maps at: MapQuest Bing Google
 
Aerial photo
No photo
 
Sectional chart

 
Airport distance calculator
Flying to Stearmans Roost Airport? Find the distance to fly.

From to 5OK3

Sunrise and sunset
Times for 13-May-2021
 Local
(UTC-5)
 Zulu
(UTC)
Morning civil twilight05:4810:48
Sunrise06:1611:16
Sunset20:1801:18
Evening civil twilight20:4601:46

Current date and time
Zulu (UTC)  13-May-2021 12:16:40
Local (UTC-5)  13-May-2021 07:16:40
 
METAR
KH71 
18nm SW 
131155Z AUTO 00000KT 10SM SCT060 OVC080 10/09 A3034 RMK AO2
KGCM 
20nm SW 
131155Z AUTO 00000KT 10SM BKN060 08/05 A3037 RMK AO2
KGMJ 
21nm E 
131155Z AUTO 00000KT 10SM BKN060 BKN085 10/06 A3036 RMK AO2
KMIO 
28nm NE 
131155Z AUTO 00000KT 10SM FEW080 07/05 A3036 RMK AO2
KTQH 
34nm S 
131155Z AUTO 00000KT 10SM SCT050 SCT070 OVC080 11/06 A3035 RMK AO2
TAF
KTUL 
40nm SW 
130520Z 1306/1406 VRB03KT P6SM SCT060 FM132300 12005KT P6SM SCT250
KXNA 
43nm E 
130520Z 1306/1406 VRB04KT P6SM BKN070 FM131500 VRB04KT P6SM SCT100 SCT250
KBVO 
45nm W 
131120Z 1312/1412 00000KT P6SM SKC FM141000 16005KT P6SM FEW250
KRVS 
48nm SW 
130520Z 1306/1406 VRB03KT P6SM SCT060 FM132300 13005KT P6SM SCT250
NOTAMs
Click for the latest NOTAMs
NOTAMs are issued by the DoD/FAA and will open in a separate window not controlled by AirNav.

 

 
 

Would you like to see your business listed on this page?

 If your business provides an interesting product or service to pilots, flight crews, aircraft, or users of the Stearmans Roost Airport, you should consider listing it here.  To start the listing process, click on the button below
 
Add a business
 

Other Pages about Stearmans Roost Airport

Update a link
 
Copyright © AirNav, LLC. All rights reserved. Privacy Policy  Contact